GW5972 Weather Reports


time (UTC)temp
C
wind
direction
speed
KPH
gust
KPH
rain 1hr
cm
rain 24hr
cm
rain mn
cm
humidity
%
barometer
mb
20260502233837 11 43 0.0 0.0 0.23 0.00 0.74 94 1005.0
20260502233336 11 43 0.0 0.0 0.30 0.00 0.74 94 1005.0
20260502232837 11 342 0.0 0.0 0.23 0.00 0.71 94 1005.0
20260502232337 11 342 0.0 0.0 0.30 0.00 0.69 93 1005.0
20260502231836 11 342 0.0 0.0 0.23 0.00 0.66 93 1005.0
20260502231337 11 342 0.0 0.0 0.30 0.00 0.64 93 1005.0
20260502230836 11 342 0.0 0.0 0.30 0.00 0.61 93 1005.0
20260502230337 11 342 0.0 0.0 0.30 0.00 0.58 93 1005.0
20260502225837 11 342 0.0 0.0 0.23 0.00 0.56 93 1005.0
20260502225336 11 342 0.0 0.0 0.30 0.00 0.53 93 1005.0
20260502224837 11 342 0.0 0.0 0.23 0.00 0.51 93 1005.0
20260502224337 11 342 0.0 0.0 0.23 0.00 0.48 93 1005.0
20260502223836 11 342 0.0 0.0 0.18 0.00 0.46 93 1005.0
20260502223336 11 342 0.0 0.0 0.13 0.00 0.43 93 1005.0
20260502222836 11 342 0.0 0.0 0.13 0.00 0.43 92 1005.0
20260502222336 12 342 0.0 0.0 0.18 0.00 0.41 92 1005.0
20260502221837 12 342 0.0 0.0 0.23 0.00 0.41 92 1005.0
20260502221337 12 342 0.0 0.0 0.18 0.00 0.38 92 1005.0
20260502220838 12 342 0.0 0.0 0.18 0.00 0.36 92 1005.0
20260502220337 12 342 0.0 0.0 0.18 0.00 0.33 92 1005.0
20260502215837 12 342 0.0 0.0 0.13 0.00 0.33 92 1005.0
20260502215336 12 342 0.0 0.0 0.13 0.00 0.30 92 1005.0
20260502214836 12 342 0.0 0.0 0.13 0.00 0.30 92 1005.0
20260502214336 12 342 0.0 0.0 0.18 0.00 0.28 92 1005.0
20260502213836 12 342 0.0 0.0 0.18 0.00 0.28 91 1005.0
20260502213337 12 342 0.0 0.0 0.18 0.00 0.25 91 1005.0
20260502212837 12 342 0.0 0.0 0.13 0.00 0.23 91 1005.0
20260502212336 12 342 0.0 0.0 0.18 0.00 0.23 91 1005.0
20260502211836 12 342 0.0 0.0 0.18 0.00 0.20 91 1005.0
20260502211337 12 342 0.0 0.0 0.30 0.00 0.20 91 1005.0
20260502210836 12 342 0.0 0.0 0.23 0.00 0.18 91 1005.0
20260502210336 12 342 0.0 0.0 0.30 0.00 0.15 91 1005.0
20260502205836 12 342 0.0 0.0 0.23 0.00 0.13 91 1005.0
20260502205336 12 342 0.0 0.0 0.13 0.00 0.10 90 1006.0
20260502204836 12 342 0.0 0.0 0.13 0.00 0.10 90 1006.0
20260502204336 12 342 0.0 0.0 0.05 0.00 0.08 90 1006.0
20260502203837 12 342 0.0 0.0 0.00 0.00 0.05 90 1006.0
20260502203336 12 342 0.0 0.0 0.05 0.00 0.05 90 1005.0
20260502202837 12 342 0.0 0.0 0.00 0.00 0.05 89 1006.0
20260502202337 12 342 0.0 0.0 0.00 0.00 0.05 89 1005.0
20260502201836 12 342 0.0 0.0 0.05 0.00 0.05 89 1006.0
20260502201336 12 342 0.0 0.0 0.05 0.00 0.05 89 1006.0
20260502200836 13 342 0.0 0.0 0.00 0.00 0.05 88 1006.0
20260502200337 13 342 0.0 0.0 0.00 0.00 0.05 88 1006.0
20260502195836 13 342 0.0 0.0 0.05 0.00 0.05 88 1005.0
20260502195336 13 342 0.0 0.0 0.05 0.00 0.05 87 1006.0
20260502194836 13 342 0.0 0.0 0.00 0.00 0.03 87 1005.0
20260502194337 13 342 0.0 0.0 0.05 0.00 0.03 86 1006.0
20260502193836 13 342 0.0 0.0 0.05 0.00 0.03 85 1005.0
20260502193336 13 342 0.0 0.0 0.05 0.00 0.03 85 1006.0
20260502192836 13 342 0.0 0.0 0.00 0.00 0.00 84 1006.0
20260502192336 13 342 0.0 0.0 0.00 0.00 0.00 83 1005.0
20260502191836 13 342 0.0 0.0 0.00 0.00 0.00 82 1005.0
20260502191336 13 342 0.0 0.0 0.00 0.00 0.00 82 1006.0
20260502190836 13 342 0.0 0.0 0.00 0.00 0.00 81 1006.0
20260502190336 13 342 0.0 0.0 0.00 0.00 0.00 81 1005.0
20260502185836 13 342 0.0 0.0 0.00 0.00 0.00 80 1005.0
20260502185337 13 342 0.0 0.0 0.00 0.00 0.00 80 1005.0
20260502184837 14 342 0.0 0.0 0.00 0.00 0.00 79 1005.0
20260502184337 14 342 0.0 0.0 0.00 0.00 0.00 78 1006.0
20260502183836 14 342 0.0 0.0 0.00 0.00 0.00 78 1006.0
20260502183337 14 342 0.0 0.0 0.00 0.00 0.00 76 1005.0
20260502182838 14 342 0.0 0.0 0.00 0.00 0.00 76 1006.0
20260502182336 14 342 0.0 0.0 0.00 0.00 0.00 75 1006.0
20260502181836 15 342 0.0 0.0 0.00 0.00 0.00 74 1006.0
20260502181337 15 342 0.0 0.0 0.00 0.00 0.00 74 1006.0
20260502180838 15 342 0.0 0.0 0.00 0.00 0.00 74 1006.0
20260502180337 15 343 0.0 0.0 0.00 0.00 0.00 73 1006.0
20260502170337 15 51 0.0 0.0 0.00 0.00 0.00 71 1006.0
20260502164336 15 50 0.0 0.0 0.00 0.00 0.00 69 1006.0
20260502163837 15 51 1.6 1.6 0.00 0.00 0.00 68 1006.0
20260502163336 15 325 0.0 1.6 0.00 0.00 0.00 68 1006.0
20260502162836 15 51 0.0 0.0 0.00 0.00 0.00 68 1006.0
20260502162337 15 51 0.0 1.6 0.00 0.00 0.00 68 1006.0
20260502161836 15 79 0.0 1.6 0.00 0.00 0.00 68 1006.0
20260502161340 15 49 0.0 1.6 0.00 0.00 0.00 67 1006.0
20260502160836 15 64 0.0 3.2 0.00 0.00 0.00 65 1006.0
20260502160336 16 91 0.0 1.6 0.00 0.00 0.00 64 1006.0
20260502152337 17 30 1.6 3.2 0.00 0.00 0.00 59 1007.0
20260502151836 17 15 1.6 1.6 0.00 0.00 0.00 59 1007.0
20260502151336 17 12 0.0 0.0 0.00 0.00 0.00 59 1007.0
20260502150837 17 352 0.0 1.6 0.00 0.00 0.00 59 1007.0
20260502150336 17 318 0.0 0.0 0.00 0.00 0.00 59 1007.0
20260502130336 17 315 0.0 0.0 0.00 0.00 0.00 61 1008.0
20260502123336 17 178 0.0 0.0 0.00 0.00 0.00 58 1008.0
20260502122837 17 173 0.0 1.6 0.00 0.00 0.00 60 1008.0
20260502122337 17 172 0.0 3.2 0.00 0.00 0.00 58 1009.0
20260502121837 16 124 0.0 1.6 0.00 0.00 0.00 60 1009.0
20260502121336 16 142 0.0 1.6 0.00 0.00 0.00 61 1009.0
20260502120836 16 160 0.0 0.0 0.00 0.00 0.00 59 1009.0
20260502120336 17 188 3.2 4.8 0.00 0.00 0.00 57 1009.0
20260502115836 17 65 0.0 3.2 0.00 0.00 0.00 58 1009.0
20260502115337 17 192 0.0 3.2 0.00 0.00 0.00 61 1009.0
20260502114836 16 225 4.8 8.0 0.00 0.00 0.00 61 1009.0
20260502114336 15 145 1.6 4.8 0.00 0.00 0.00 63 1009.0
20260502113836 15 212 1.6 1.6 0.00 0.00 0.00 66 1009.0
20260502113337 16 223 0.0 1.6 0.00 0.00 0.00 65 1009.0
20260502112837 16 210 0.0 3.2 0.00 0.00 0.00 64 1009.0
20260502112338 15 161 1.6 1.6 0.00 0.00 0.00 66 1009.0
20260502111837 16 188 1.6 3.2 0.00 0.00 0.00 64 1009.0
20260502111337 15 225 0.0 0.0 0.00 0.00 0.00 67 1009.0
20260502110837 15 226 0.0 1.6 0.00 0.00 0.00 66 1009.0
20260502110337 15 227 0.0 1.6 0.00 0.00 0.00 68 1009.0
20260502105836 15 201 0.0 1.6 0.00 0.00 0.00 68 1009.0
20260502105337 15 190 1.6 1.6 0.00 0.00 0.00 67 1009.0
20260502104836 15 154 0.0 0.0 0.00 0.00 0.00 70 1009.0
20260502104337 15 181 0.0 1.6 0.00 0.00 0.00 69 1009.0
20260502103836 15 191 0.0 1.6 0.00 0.00 0.00 69 1009.0
20260502103337 15 189 0.0 1.6 0.00 0.00 0.00 69 1009.0
20260502102836 15 182 1.6 1.6 0.00 0.00 0.00 70 1010.0
20260502102336 14 180 0.0 1.6 0.00 0.00 0.00 71 1009.0
20260502101837 14 176 0.0 0.0 0.00 0.00 0.00 73 1010.0
20260502101336 14 176 0.0 1.6 0.00 0.00 0.00 70 1010.0
20260502100836 14 157 0.0 0.0 0.00 0.00 0.00 72 1010.0
20260502100336 14 136 0.0 0.0 0.00 0.00 0.00 71 1010.0
20260502091337 13 166 0.0 0.0 0.00 0.00 0.00 74 1010.0
20260502090837 13 208 0.0 1.6 0.00 0.00 0.00 77 1010.0
20260502090336 12 190 0.0 0.0 0.00 0.00 0.00 78 1010.0
20260502071336 10 200 0.0 0.0 0.00 0.00 0.00 95 1010.0
20260502070836 10 210 0.0 0.0 0.00 0.00 0.00 96 1010.0
20260502070337 9 199 0.0 3.2 0.00 0.00 0.00 96 1010.0
20260502065836 9 144 0.0 0.0 0.00 0.00 0.00 96 1010.0
20260502065337 9 144 0.0 1.6 0.00 0.00 0.00 96 1010.0
20260502064836 8 144 0.0 0.0 0.00 0.00 0.00 96 1010.0
20260502064336 8 144 0.0 0.0 0.00 0.00 0.00 96 1010.0
20260502063837 8 144 0.0 0.0 0.00 0.00 0.00 96 1010.0
20260502063337 8 144 0.0 0.0 0.00 0.00 0.00 96 1010.0
20260502062837 8 142 0.0 0.0 0.00 0.00 0.00 96 1010.0
20260502062336 8 142 0.0 0.0 0.00 0.00 0.00 96 1010.0
20260502061836 8 142 0.0 1.6 0.00 0.00 0.00 96 1010.0
20260502061336 8 142 0.0 0.0 0.00 0.00 0.00 96 1010.0
20260502060837 8 142 0.0 0.0 0.00 0.00 0.00 96 1010.0
20260502060337 8 141 0.0 0.0 0.00 0.00 0.00 96 1010.0
20260502055837 8 141 0.0 1.6 0.00 0.00 0.00 96 1010.0
20260502055338 8 141 0.0 1.6 0.00 0.00 0.00 96 1010.0
20260502054836 8 141 0.0 0.0 0.00 0.00 0.00 96 1010.0
20260502054337 8 141 0.0 0.0 0.00 0.00 0.00 96 1010.0
20260502053837 7 141 0.0 0.0 0.00 0.00 0.00 96 1010.0
20260502053336 7 140 0.0 0.0 0.00 0.00 0.00 96 1010.0
20260502052837 7 140 0.0 0.0 0.00 0.00 0.00 96 1010.0
20260502052336 7 140 0.0 0.0 0.00 0.00 0.00 96 1010.0
20260502051837 7 140 0.0 0.0 0.00 0.00 0.00 96 1010.0
20260502051337 7 140 0.0 0.0 0.00 0.00 0.00 96 1010.0
20260502050837 7 140 0.0 0.0 0.00 0.00 0.00 96 1010.0
20260502050336 7 140 0.0 0.0 0.00 0.00 0.00 96 1010.0
20260502045836 7 140 0.0 0.0 0.00 0.00 0.00 96 1010.0
20260502045336 7 140 0.0 0.0 0.00 0.00 0.00 96 1010.0
20260502044836 7 140 0.0 0.0 0.00 0.00 0.00 96 1010.0
20260502044336 7 140 0.0 0.0 0.00 0.00 0.00 96 1010.0
20260502043836 7 140 0.0 0.0 0.00 0.00 0.00 96 1010.0
20260502043337 7 140 0.0 0.0 0.00 0.00 0.00 96 1010.0
20260502042836 7 140 0.0 0.0 0.00 0.00 0.00 96 1010.0
20260502042336 7 140 0.0 0.0 0.00 0.00 0.00 96 1010.0
20260502041836 7 140 0.0 0.0 0.00 0.00 0.00 96 1010.0
20260502041337 7 140 0.0 0.0 0.00 0.00 0.00 96 1010.0
20260502040836 7 140 0.0 0.0 0.00 0.00 0.00 95 1010.0
20260502040336 7 140 0.0 0.0 0.00 0.00 0.00 95 1010.0
20260502035837 7 140 0.0 0.0 0.00 0.00 0.00 95 1010.0
20260502035336 7 140 0.0 0.0 0.05 0.00 0.00 95 1010.0
20260502034837 7 140 0.0 0.0 0.05 0.00 0.00 95 1010.0
20260502034336 7 140 0.0 0.0 0.00 0.00 0.00 95 1010.0
20260502033836 7 140 0.0 0.0 0.00 0.00 0.00 95 1010.0
20260502033337 7 140 0.0 0.0 0.00 0.00 0.00 95 1010.0
20260502032836 7 140 0.0 0.0 0.00 0.00 0.00 95 1010.0
20260502032336 7 140 0.0 0.0 0.00 0.00 0.00 95 1010.0
20260502031839 7 140 0.0 0.0 0.00 0.00 0.00 95 1010.0
20260502031336 7 140 0.0 0.0 0.00 0.00 0.00 95 1011.0
20260502030836 7 140 0.0 0.0 0.00 0.00 0.00 95 1010.0
20260502030336 7 140 0.0 0.0 0.00 0.00 0.00 95 1010.0
20260502025838 7 140 0.0 0.0 0.00 0.00 0.00 95 1011.0
20260502025336 8 140 0.0 0.0 0.00 0.00 0.00 95 1010.0
20260502024836 8 140 0.0 0.0 0.00 0.00 0.00 95 1010.0
20260502024337 8 140 0.0 0.0 0.00 0.00 0.00 95 1010.0
20260502023837 8 140 0.0 0.0 0.00 0.00 0.00 95 1010.0
20260502023336 8 140 0.0 0.0 0.00 0.00 0.00 95 1010.0
20260502022836 8 140 0.0 0.0 0.00 0.00 0.00 95 1011.0
20260502022337 7 140 0.0 0.0 0.00 0.00 0.00 95 1010.0
20260502021837 8 140 0.0 0.0 0.00 0.00 0.00 95 1011.0
20260502021337 8 140 0.0 0.0 0.00 0.00 0.00 95 1011.0
20260502020836 8 140 0.0 0.0 0.00 0.00 0.00 95 1011.0
20260502020337 8 140 0.0 0.0 0.00 0.00 0.00 95 1011.0
20260502015836 8 140 0.0 0.0 0.00 0.00 0.00 95 1011.0
20260502015337 8 140 0.0 0.0 0.00 0.00 0.00 95 1011.0
20260502014836 8 140 0.0 0.0 0.00 0.00 0.00 95 1011.0
20260502014336 8 140 0.0 0.0 0.00 0.00 0.00 95 1011.0
20260502013838 8 140 0.0 0.0 0.00 0.00 0.00 95 1011.0
20260502013337 8 140 0.0 0.0 0.00 0.00 0.00 95 1012.0
20260502012837 8 140 0.0 0.0 0.00 0.00 0.00 95 1011.0
20260502012336 8 140 0.0 0.0 0.00 0.00 0.00 95 1011.0
20260502011836 8 140 0.0 0.0 0.00 0.00 0.00 95 1012.0
20260502011336 8 140 0.0 0.0 0.00 0.00 0.00 95 1012.0
20260502010836 8 140 0.0 1.6 0.00 0.00 0.00 95 1011.0
20260502010337 8 140 0.0 0.0 0.00 0.00 0.00 95 1012.0
20260502005836 8 140 0.0 0.0 0.00 0.00 0.00 95 1012.0
20260502005336 8 140 0.0 0.0 0.00 0.00 0.00 95 1012.0
20260502004836 8 141 0.0 1.6 0.00 0.00 0.00 95 1012.0
20260502004336 8 31 0.0 0.0 0.00 0.00 0.00 95 1012.0
20260502003836 8 31 0.0 0.0 0.00 0.00 0.00 95 1012.0
20260502003336 8 31 0.0 0.0 0.00 0.00 0.00 95 1012.0
20260502002836 8 31 0.0 0.0 0.00 0.00 0.00 95 1012.0
20260502002336 8 31 0.0 0.0 0.00 0.00 0.00 95 1012.0
20260502001837 8 31 1.6 1.6 0.00 0.00 0.00 95 1012.0
20260502001337 8 31 0.0 0.0 0.00 0.00 0.00 95 1012.0
20260502000837 8 31 0.0 1.6 0.00 0.00 0.00 95 1012.0
20260502000336 8 31 0.0 0.0 0.00 0.00 0.00 95 1012.0
20260501235837 9 31 0.0 0.0 0.00 0.00 0.10 95 1012.0
20260501235337 9 31 0.0 0.0 0.00 0.00 0.10 95 1012.0
20260501234836 9 31 0.0 0.0 0.00 0.00 0.10 95 1012.0
20260501234337 9 31 0.0 0.0 0.00 0.00 0.10 95 1012.0